GEC8188 EDDF-EBBR

Flight info

Callsign GEC8188
Flight time 0h 37m
Altitude 22000
Route SOBRA2L/18 SOBRA Y180 BITBU Y181 GOPAS N852 LNO
Aircraft B77L/H-SDE1E2E3FGHIJ2J3J4J5M1RWXY/LB1D1

Departure

Time 2026-04-15 09:07
Airport Frankfurt Main Airport (EDDF)

Arrival

Time 2026-04-15 09:44
Airport Brussels Airport (EBBR)
Time Latitude Longitude Altitude Speed Heading
2026-04-15 08:39 50.04027 8.54343 353 ft 0 kts 69°
2026-04-15 09:00 50.04020 8.54312 362 ft 4 kts 69°
2026-04-15 09:00 50.04010 8.54273 357 ft 4 kts 69°
2026-04-15 09:00 50.04001 8.54234 360 ft 4 kts 79°
2026-04-15 09:00 50.04002 8.54203 359 ft 1 kts 116°
2026-04-15 09:01 50.03995 8.54216 359 ft 4 kts 132°
2026-04-15 09:01 50.03972 8.54237 359 ft 4 kts 156°
2026-04-15 09:01 50.03947 8.54251 355 ft 4 kts 160°
2026-04-15 09:01 50.03923 8.54265 356 ft 3 kts 159°
2026-04-15 09:02 50.03921 8.54266 356 ft 3 kts 159°
2026-04-15 09:03 50.03918 8.54268 356 ft 3 kts 160°
2026-04-15 09:03 50.03850 8.54299 353 ft 17 kts 176°
2026-04-15 09:04 50.03784 8.54157 354 ft 18 kts 250°
2026-04-15 09:04 50.03741 8.53977 354 ft 18 kts 249°
2026-04-15 09:04 50.03697 8.53798 352 ft 18 kts 249°
2026-04-15 09:04 50.03654 8.53618 348 ft 18 kts 248°
2026-04-15 09:05 50.03608 8.53440 351 ft 18 kts 249°
2026-04-15 09:05 50.03564 8.53260 352 ft 18 kts 249°
2026-04-15 09:05 50.03522 8.53080 348 ft 18 kts 250°
2026-04-15 09:05 50.03480 8.52899 348 ft 18 kts 248°
2026-04-15 09:06 50.03434 8.52721 335 ft 18 kts 249°
2026-04-15 09:06 50.03409 8.52619 336 ft 6 kts 246°
2026-04-15 09:06 50.03370 8.52594 335 ft 7 kts 182°
2026-04-15 09:06 50.03279 8.52595 335 ft 35 kts 180°
2026-04-15 09:07 50.02779 8.52602 336 ft 106 kts 179°
2026-04-15 09:07 50.01841 8.52613 334 ft 161 kts 179°
2026-04-15 09:07 50.00623 8.52624 620 ft 178 kts 178°
2026-04-15 09:07 49.99380 8.52655 1112 ft 183 kts 176°
2026-04-15 09:08 49.98128 8.52731 1837 ft 179 kts 175°
2026-04-15 09:08 49.96854 8.52826 2257 ft 193 kts 175°
2026-04-15 09:08 49.95430 8.52934 2513 ft 214 kts 175°
2026-04-15 09:08 49.93912 8.53043 3061 ft 222 kts 175°
2026-04-15 09:09 49.92352 8.53153 3690 ft 228 kts 175°
2026-04-15 09:09 49.90753 8.53269 4425 ft 230 kts 175°
2026-04-15 09:09 49.89155 8.53380 5203 ft 232 kts 175°
2026-04-15 09:09 49.87545 8.53456 5913 ft 231 kts 182°
2026-04-15 09:10 49.85946 8.52822 6224 ft 249 kts 201°
2026-04-15 09:10 49.84281 8.51778 6633 ft 264 kts 200°
2026-04-15 09:10 49.82537 8.50777 7327 ft 269 kts 199°
2026-04-15 09:10 49.80764 8.49776 8024 ft 274 kts 200°
2026-04-15 09:11 49.78953 8.48755 8692 ft 280 kts 200°
2026-04-15 09:11 49.77240 8.47367 9328 ft 282 kts 222°
2026-04-15 09:11 49.76134 8.44886 10004 ft 283 kts 252°
2026-04-15 09:11 49.75883 8.41887 10740 ft 285 kts 275°
2026-04-15 09:12 49.76280 8.38806 10972 ft 303 kts 284°
2026-04-15 09:12 49.76839 8.35532 11150 ft 327 kts 284°
2026-04-15 09:12 49.77439 8.32008 11337 ft 349 kts 284°
2026-04-15 09:12 49.78053 8.28285 11711 ft 364 kts 284°
2026-04-15 09:13 49.78677 8.24436 12357 ft 371 kts 284°
2026-04-15 09:13 49.79305 8.20532 13071 ft 376 kts 283°
2026-04-15 09:13 49.79936 8.16585 13867 ft 379 kts 283°
2026-04-15 09:13 49.80569 8.12611 14615 ft 382 kts 283°
2026-04-15 09:14 49.81206 8.08603 15266 ft 386 kts 284°
2026-04-15 09:14 49.81850 8.04548 15894 ft 391 kts 284°
2026-04-15 09:14 49.82504 8.00420 16531 ft 396 kts 284°
2026-04-15 09:14 49.83162 7.96263 17172 ft 400 kts 284°
2026-04-15 09:15 49.83828 7.92055 17809 ft 405 kts 284°
2026-04-15 09:15 49.84501 7.87791 18444 ft 409 kts 284°
2026-04-15 09:15 49.85179 7.83489 19004 ft 413 kts 284°
2026-04-15 09:15 49.85851 7.79205 19563 ft 417 kts 284°
2026-04-15 09:16 49.86537 7.74830 20222 ft 417 kts 284°
2026-04-15 09:16 49.87222 7.70480 21047 ft 413 kts 284°
2026-04-15 09:16 49.87890 7.66175 21920 ft 409 kts 284°
2026-04-15 09:16 49.88552 7.61876 22285 ft 410 kts 284°
2026-04-15 09:17 49.89214 7.57561 22253 ft 412 kts 284°
2026-04-15 09:17 49.89874 7.53243 22258 ft 411 kts 284°
2026-04-15 09:17 49.90532 7.48933 22261 ft 411 kts 284°
2026-04-15 09:17 49.91189 7.44616 22244 ft 410 kts 284°
2026-04-15 09:18 49.91842 7.40310 22245 ft 410 kts 284°
2026-04-15 09:18 49.92495 7.36006 22268 ft 410 kts 284°
2026-04-15 09:18 49.93146 7.31704 22265 ft 410 kts 284°
2026-04-15 09:18 49.93794 7.27404 22266 ft 410 kts 284°
2026-04-15 09:19 49.94443 7.23092 22270 ft 410 kts 284°
2026-04-15 09:19 49.95090 7.18778 22272 ft 410 kts 284°
2026-04-15 09:19 49.95734 7.14466 22263 ft 410 kts 284°
2026-04-15 09:19 49.96377 7.10154 22268 ft 410 kts 284°
2026-04-15 09:20 49.97019 7.05833 22260 ft 410 kts 284°
2026-04-15 09:20 49.97662 7.01507 22258 ft 410 kts 284°
2026-04-15 09:20 49.98293 6.97246 22233 ft 410 kts 284°
2026-04-15 09:20 49.98883 6.92913 22238 ft 410 kts 279°
2026-04-15 09:21 49.99191 6.88498 22246 ft 411 kts 274°
2026-04-15 09:21 49.99187 6.84054 22223 ft 412 kts 268°
2026-04-15 09:21 49.99037 6.79612 22228 ft 411 kts 268°
2026-04-15 09:21 49.98885 6.75178 22233 ft 411 kts 268°
2026-04-15 09:22 49.98803 6.70752 22225 ft 407 kts 275°
2026-04-15 09:22 49.99446 6.66511 22239 ft 405 kts 295°
2026-04-15 09:22 50.00894 6.62934 22265 ft 405 kts 310°
2026-04-15 09:22 50.02851 6.59794 22236 ft 404 kts 315°
2026-04-15 09:23 50.04858 6.56717 22236 ft 406 kts 315°
2026-04-15 09:23 50.06858 6.53595 22222 ft 408 kts 315°
2026-04-15 09:23 50.08854 6.50454 22215 ft 409 kts 314°
2026-04-15 09:23 50.10852 6.47305 22212 ft 409 kts 314°
2026-04-15 09:24 50.12851 6.44150 22209 ft 409 kts 314°
2026-04-15 09:24 50.14852 6.40992 22218 ft 409 kts 314°
2026-04-15 09:24 50.16853 6.37831 22216 ft 409 kts 314°
2026-04-15 09:24 50.18850 6.34675 22222 ft 409 kts 314°
2026-04-15 09:25 50.20848 6.31513 22222 ft 408 kts 314°
2026-04-15 09:25 50.22810 6.28406 22206 ft 395 kts 314°
2026-04-15 09:25 50.24707 6.25399 22200 ft 380 kts 314°
2026-04-15 09:25 50.26502 6.22548 22214 ft 366 kts 313°
2026-04-15 09:26 50.28259 6.19756 22052 ft 358 kts 314°
2026-04-15 09:26 50.30003 6.16978 21677 ft 357 kts 313°
2026-04-15 09:26 50.31737 6.14214 21304 ft 354 kts 313°
2026-04-15 09:26 50.33457 6.11470 20920 ft 352 kts 314°
2026-04-15 09:27 50.35164 6.08744 20523 ft 349 kts 313°
2026-04-15 09:27 50.36857 6.06035 20156 ft 347 kts 313°
2026-04-15 09:27 50.38543 6.03336 19766 ft 345 kts 314°
2026-04-15 09:27 50.40216 6.00656 19397 ft 343 kts 313°
2026-04-15 09:28 50.41881 5.97984 19011 ft 342 kts 313°
2026-04-15 09:28 50.43542 5.95317 18637 ft 340 kts 313°
2026-04-15 09:28 50.45193 5.92662 18216 ft 339 kts 313°
2026-04-15 09:28 50.46837 5.90015 17806 ft 337 kts 313°
2026-04-15 09:29 50.48469 5.87388 17393 ft 335 kts 313°
2026-04-15 09:29 50.50084 5.84784 17020 ft 332 kts 313°
2026-04-15 09:29 50.51689 5.82193 16660 ft 329 kts 312°
2026-04-15 09:29 50.53275 5.79629 16294 ft 326 kts 312°
2026-04-15 09:30 50.54853 5.77078 15927 ft 324 kts 312°
2026-04-15 09:30 50.56414 5.74550 15559 ft 321 kts 312°
2026-04-15 09:30 50.57941 5.72077 15227 ft 318 kts 312°
2026-04-15 09:30 50.59440 5.69526 14863 ft 315 kts 308°
2026-04-15 09:31 50.60823 5.66866 14513 ft 312 kts 306°
2026-04-15 09:31 50.62165 5.64187 14172 ft 310 kts 306°
2026-04-15 09:31 50.63492 5.61525 13810 ft 308 kts 306°
2026-04-15 09:31 50.64819 5.58875 13447 ft 306 kts 306°
2026-04-15 09:32 50.66133 5.56259 13076 ft 303 kts 306°
2026-04-15 09:32 50.67437 5.53673 12744 ft 299 kts 306°
2026-04-15 09:32 50.68728 5.51117 12397 ft 297 kts 307°
2026-04-15 09:32 50.70018 5.48562 12067 ft 299 kts 306°
2026-04-15 09:33 50.71330 5.45963 11747 ft 307 kts 307°
2026-04-15 09:33 50.72676 5.43296 11406 ft 313 kts 307°
2026-04-15 09:33 50.74036 5.40601 11050 ft 314 kts 306°
2026-04-15 09:33 50.75391 5.37916 10694 ft 311 kts 306°
2026-04-15 09:34 50.76717 5.35289 10552 ft 300 kts 306°
2026-04-15 09:34 50.77977 5.32788 10401 ft 290 kts 306°
2026-04-15 09:34 50.79224 5.30310 10267 ft 279 kts 306°
2026-04-15 09:34 50.80399 5.27976 10023 ft 273 kts 306°
2026-04-15 09:35 50.81568 5.25645 9688 ft 268 kts 306°
2026-04-15 09:35 50.82715 5.23355 9376 ft 263 kts 305°
2026-04-15 09:35 50.83848 5.21095 9072 ft 263 kts 305°
2026-04-15 09:35 50.84999 5.18792 8785 ft 270 kts 305°
2026-04-15 09:36 50.86176 5.16438 8482 ft 275 kts 305°
2026-04-15 09:36 50.87366 5.14058 8139 ft 275 kts 306°
2026-04-15 09:36 50.88475 5.11623 7796 ft 270 kts 300°
2026-04-15 09:36 50.89469 5.09122 7480 ft 267 kts 299°
2026-04-15 09:37 50.90446 5.06620 7168 ft 268 kts 300°
2026-04-15 09:37 50.91440 5.04110 6851 ft 269 kts 300°
2026-04-15 09:37 50.92441 5.01604 6542 ft 269 kts 299°
2026-04-15 09:37 50.93443 4.99097 6202 ft 269 kts 299°
2026-04-15 09:38 50.94444 4.96592 5873 ft 268 kts 299°
2026-04-15 09:38 50.95439 4.94108 5554 ft 266 kts 299°
2026-04-15 09:38 50.96425 4.91649 5328 ft 260 kts 299°
2026-04-15 09:38 50.97375 4.89276 5113 ft 252 kts 299°
2026-04-15 09:39 50.98110 4.86870 4825 ft 234 kts 276°
2026-04-15 09:39 50.98236 4.84356 4635 ft 228 kts 270°
2026-04-15 09:39 50.98371 4.81822 4425 ft 233 kts 271°
2026-04-15 09:39 50.98530 4.79248 4225 ft 234 kts 271°
2026-04-15 09:40 50.98568 4.76733 4024 ft 220 kts 253°
2026-04-15 09:40 50.98110 4.74468 3781 ft 218 kts 246°
2026-04-15 09:40 50.97552 4.72201 3310 ft 222 kts 243°
2026-04-15 09:40 50.96937 4.70001 2908 ft 213 kts 242°
2026-04-15 09:41 50.96336 4.67915 2586 ft 200 kts 241°
2026-04-15 09:41 50.95782 4.65990 2313 ft 183 kts 241°
2026-04-15 09:41 50.95277 4.64234 2090 ft 169 kts 240°
2026-04-15 09:41 50.94955 4.63120 1931 ft 169 kts 240°
2026-04-15 09:42 50.94461 4.61414 1739 ft 172 kts 241°
2026-04-15 09:42 50.93816 4.59168 1413 ft 161 kts 241°
2026-04-15 09:42 50.93516 4.58123 1258 ft 146 kts 240°
2026-04-15 09:42 50.92967 4.56226 1017 ft 150 kts 239°
2026-04-15 09:43 50.92533 4.54717 792 ft 151 kts 242°
2026-04-15 09:43 50.92257 4.53705 682 ft 143 kts 239°
2026-04-15 09:43 50.91836 4.52282 434 ft 141 kts 239°
2026-04-15 09:43 50.91416 4.50841 295 ft 147 kts 239°
2026-04-15 09:44 50.91008 4.49421 130 ft 138 kts 240°
2026-04-15 09:44 50.90648 4.48192 121 ft 104 kts 245°
2026-04-15 09:44 50.90411 4.47377 127 ft 59 kts 245°
2026-04-15 09:44 50.90279 4.46893 128 ft 26 kts 258°
2026-04-15 09:45 50.90324 4.46618 127 ft 26 kts 296°
2026-04-15 09:45 50.90344 4.46342 137 ft 26 kts 247°
2026-04-15 09:45 50.90269 4.46080 140 ft 23 kts 245°
2026-04-15 09:45 50.90256 4.45965 141 ft 7 kts 315°
2026-04-15 09:46 50.90298 4.45928 141 ft 6 kts 336°
2026-04-15 09:46 50.90320 4.45913 141 ft 2 kts 335°
2026-04-15 09:46 50.90324 4.45910 141 ft 0 kts 335°